W4WWT Weather Reports


time (UTC)temp
C
wind
direction
speed
KPH
gust
KPH
rain 1hr
cm
rain 24hr
cm
rain mn
cm
humidity
%
barometer
mb
20260504081002 4 74 0.0 0.0 0.00 0.00 0.00 94 1024.4
20260504050002 7 91 0.0 0.0 0.00 0.00 0.00 85 1025.1
20260504044502 7 6 0.0 0.0 0.00 0.00 0.00 84 1024.7
20260504043002 8 72 0.0 0.0 0.00 0.00 0.00 83 1024.7
20260504041502 8 138 0.0 0.0 0.00 0.00 0.00 81 1024.7
20260504040016 8 139 0.0 0.0 0.00 0.00 0.00 80 1024.7
20260504035504 8 138 0.0 0.0 0.00 0.00 0.00 79 1024.7
20260504034002 9 82 0.0 0.0 0.00 0.00 0.00 78 1025.1
20260504032502 9 73 0.0 0.0 0.00 0.00 0.00 76 1025.1
20260504031003 10 62 0.0 0.0 0.00 0.00 0.00 73 1025.1
20260504025503 10 286 0.0 0.0 0.00 0.00 0.00 72 1024.7
20260504024002 11 81 0.0 0.0 0.00 0.00 0.00 70 1024.7
20260504021002 12 97 0.0 0.0 0.00 0.00 0.00 63 1024.4
20260504015502 12 67 0.0 0.0 0.00 0.00 0.00 61 1024.0
20260504014004 13 66 0.0 0.0 0.00 0.00 0.00 60 1024.0
20260504011007 15 244 0.0 0.0 0.00 0.00 0.00 49 1023.7
20260504004502 15 119 0.0 1.6 0.00 0.00 0.00 47 1023.4
20260504003003 15 93 0.0 0.0 0.00 0.00 0.00 49 1023.4
20260504002002 16 121 1.6 1.6 0.00 0.00 0.00 46 1023.4
20260504000502 16 87 0.0 0.0 0.00 0.00 0.00 44 1023.0
20260503235002 17 58 0.0 0.0 0.00 0.00 0.00 44 1023.0
20260503233504 17 91 0.0 0.0 0.00 0.00 0.00 43 1022.7
20260503232502 18 90 0.0 1.6 0.00 0.00 0.00 43 1023.0
20260503231003 18 129 0.0 6.4 0.00 0.00 0.00 39 1023.0
20260503225502 18 149 1.6 3.2 0.00 0.00 0.00 41 1023.0
20260503224002 19 59 0.0 3.2 0.00 0.00 0.00 40 1023.0
20260503222502 19 92 0.0 9.7 0.00 0.00 0.00 39 1023.0
20260503221501 19 156 0.0 4.8 0.00 0.00 0.00 36 1023.0
20260503214503 20 21 0.0 3.2 0.00 0.00 0.00 37 1023.0
20260503213002 20 94 4.8 8.0 0.00 0.00 0.00 35 1023.4
20260503211502 20 218 0.0 1.6 0.00 0.00 0.00 36 1023.4
20260503210004 20 92 3.2 8.0 0.00 0.00 0.00 36 1023.4
20260503205002 21 79 0.0 4.8 0.00 0.00 0.00 34 1023.7
20260503203502 21 247 0.0 4.8 0.00 0.00 0.00 36 1023.7
20260503202002 21 264 1.6 8.0 0.00 0.00 0.00 33 1024.0
20260503201001 21 216 3.2 11.3 0.00 0.00 0.00 31 1024.4
20260503195503 21 30 0.0 8.0 0.00 0.00 0.00 31 1024.7
20260503192502 21 96 3.2 3.2 0.00 0.00 0.00 31 1025.1
20260503191003 21 94 1.6 6.4 0.00 0.00 0.00 31 1025.4
20260503190002 22 235 0.0 3.2 0.00 0.00 0.00 29 1025.4
20260503184502 21 109 0.0 3.2 0.00 0.00 0.00 30 1025.7
20260503180003 21 75 0.0 4.8 0.00 0.00 0.00 32 1026.1
20260503174502 21 292 1.6 3.2 0.00 0.00 0.00 31 1026.1
20260503173002 21 242 0.0 6.4 0.00 0.00 0.00 31 1026.4
20260503172001 20 248 1.6 6.4 0.00 0.00 0.00 33 1026.4
20260503150502 16 12 3.2 6.4 0.00 0.00 0.00 41 1027.4
20260503130503 7 353 0.0 0.0 0.00 0.00 0.00 88 1027.1